Weather History for Millville, NJ

Change the Weather History Date:

Monday, September 17, 2012

  Actual Average Record
Temperature  
Mean Temperature 60 °F -  
Max Temperature 75 °F 77 °F 91 °F (1991)
Min Temperature 45 °F 57 °F 41 °F (1986)
Degree Days  
Heating Degree Days 5    
Growing Degree Days 10 (Base 50)    
Moisture  
Dew Point 52 °F    
Average Humidity 71    
Maximum Humidity 97    
Minimum Humidity 37    
Precipitation  
Precipitation 0.00 in - - ()
Sea Level Pressure  
Sea Level Pressure 30.09 in    
Wind  
Wind Speed 2 mph (SSE)    
Max Wind Speed 7 mph    
Max Gust Speed -    
Visibility 10 miles    
Events      
Averages and records for this station are not official NWS values.
T = Trace of Precipitation, MM = Missing Value Source: NWS Daily Summary

Daily Weather History Graph

Daily Weather History Graph

Search for Another Location

Airport:

Trip Planner

Search our weather history database for the weather conditions in past years. The results will help you decide how hot, cold, wet, or windy it might be!

Date:

Astronomy

Sep. 17, 2012 Rise Set
Actual Time 6:43 AM EDT 7:04 PM EDT
Civil Twilight 6:16 AM EDT 7:31 PM EDT
Nautical Twilight 5:45 AM EDT 8:03 PM EDT
Astronomical Twilight 5:13 AM EDT 8:35 PM EDT
Moon 8:29 AM EDT (9/17) 7:46 PM EDT (9/17)
Length of Visible Light 13h 14m
Length of Day
12h 20m
Waxing Crescent, 3% of the Moon is Illuminated
Sep 17
Waxing Crescent
Sep 22
First Quarter
Sep 29
Full
Oct 8
Last Quarter
Oct 15
New

Hourly Weather History & Observations

Time (EDT) Temp. Dew Point Humidity Pressure Visibility Wind Dir Wind Speed Gust Speed Precip Events Conditions
12:54 AM 46.9 °F 44.1 °F 90% 30.10 in 10.0 mi Calm Calm - N/A   Clear
1:54 AM 48.0 °F 45.0 °F 89% 30.10 in 10.0 mi Calm Calm - N/A   Clear
2:54 AM 46.0 °F 44.1 °F 93% 30.11 in 10.0 mi Calm Calm - N/A   Clear
3:54 AM 46.0 °F 44.1 °F 93% 30.10 in 10.0 mi Calm Calm - N/A   Clear
4:54 AM 46.0 °F 44.1 °F 93% 30.11 in 10.0 mi Calm Calm - N/A   Clear
5:54 AM 45.0 °F 43.0 °F 93% 30.12 in 10.0 mi Calm Calm - N/A   Clear
6:54 AM 45.0 °F 44.1 °F 97% 30.12 in 10.0 mi Calm Calm - N/A   Clear
7:54 AM 51.1 °F 48.0 °F 89% 30.13 in 10.0 mi Calm Calm - N/A   Clear
8:54 AM 63.0 °F 53.1 °F 70% 30.14 in 10.0 mi Calm Calm - N/A   Clear
9:54 AM 70.0 °F 51.1 °F 51% 30.14 in 10.0 mi Calm Calm - N/A   Clear
10:54 AM 73.0 °F 46.0 °F 38% 30.13 in 10.0 mi East 4.6 mph - N/A   Clear
11:54 AM 73.9 °F 46.0 °F 37% 30.12 in 10.0 mi Variable 3.5 mph - N/A   Partly Cloudy
12:54 PM 73.9 °F 48.0 °F 40% 30.11 in 10.0 mi Variable 4.6 mph - N/A   Clear
1:54 PM 73.9 °F 52.0 °F 46% 30.09 in 10.0 mi SW 6.9 mph - N/A   Clear
2:54 PM 75.0 °F 53.1 °F 46% 30.07 in 10.0 mi Variable 6.9 mph - N/A   Clear
3:54 PM 73.9 °F 55.0 °F 52% 30.06 in 10.0 mi Variable 5.8 mph - N/A   Clear
4:54 PM 73.0 °F 55.9 °F 55% 30.06 in 10.0 mi Variable 5.8 mph - N/A   Mostly Cloudy
5:54 PM 71.1 °F 57.9 °F 63% 30.06 in 10.0 mi Variable 5.8 mph - N/A   Partly Cloudy
6:54 PM 69.1 °F 60.1 °F 73% 30.05 in 10.0 mi SSE 3.5 mph - N/A   Partly Cloudy
7:54 PM 68.0 °F 61.0 °F 78% 30.04 in 10.0 mi SSE 4.6 mph - N/A   Partly Cloudy
8:54 PM 69.1 °F 62.1 °F 78% 30.04 in 10.0 mi Calm Calm - N/A   Clear
9:54 PM 70.0 °F 63.0 °F 78% 30.04 in 10.0 mi SSE 4.6 mph - N/A   Overcast
10:54 PM 71.1 °F 63.0 °F 75% 30.03 in 10.0 mi South 3.5 mph - N/A   Overcast
11:54 PM 71.1 °F 63.0 °F 75% 30.03 in 10.0 mi Variable 4.6 mph - N/A   Overcast